Погода в Эльдикане

Россия / Республика Саха (Якутия)     60°46′18″N   135°09′28″E
темп.,
°C
ветер,
м/с
пор.,
м/с
влажн.,
%
обл.,
%
осадки,
мм/ч
давл.,
гПа
погр.,
м
27 февраля, сб
сб2700:00−34вюв11960 0.0 103419
03:00−35вюв12960 0.0 103319
06:00−36в11950 0.0 103219
09:00−31в12920 0.0 103093
12:00−24в12870 0.0 1028331
15:00−22св13850 0.0 1024380
18:00−26с22955 0.0 102219
21:00−27ссв229432 0.0 101919
28 февраля, вс
вс2800:00−26с2291100 0.0 101720
03:00−26ссв1189100 0.0 101519
06:00−26ююв1185100 0.0 101519
09:00−21ююв3789100 0.0 1016366
12:00−19ююз3593100 0.1 1018687
15:00−20юз3590100 0.2 1019692
18:00−23зюз2595100 0.1 1022223
21:00−25зюз1196100 0.1 102419
1 марта, пн
пн100:00−26зюз1298100 0.0 102532
03:00−28зюз1297100 0.1 102660
06:00−29зюз1398100 0.1 102790
09:00−28з2397100 0.1 1027218
12:00−25з2388100 0.1 1026684
15:00−25зсз2385100 0.1 1026951
18:00−27зсз2295100 0.1 102721
21:00−29сз229599 0.1 102731
2 марта, вт
вт200:00−31сз229693 0.0 102719
03:00−32зсз239796 0.0 102678
06:00−31сз2498100 0.1 1026161
09:00−30сз2497100 0.1 1026260
12:00−27зсз2392100 0.1 1026504
15:00−26сз2391100 0.3 1025677
18:00−28зсз1198100 0.1 102619
21:00−28сз1198100 0.1 102623
3 марта, ср
ср300:00−29ссз1198100 0.1 102619
03:00−29ссз1199100 0.1 102519
06:00−30сз1198100 0.1 102419
09:00−29сз0197100 0.1 1023152
12:00−25сз1188100 0.0 1021585
15:00−25сз1284100 0.1 1019791
18:00−30зсз1194100 0.0 101919
21:00−32сз1299100 0.0 101819